Theta_e
321 322 321 321 321 321 321 321 322 324 326 326 328 328 327 327 329 332 331 331 332 334 335 339 340 340 341 343 347 351 353 353 354 355 356 355 354 354 353 352 352 352 350 350 349 347 346 345 344 342 340 338 337 336 333 331 330 329 328 327 325 324 324 325 325 324 325 325 325 325 325 325 326 326 329 330 332 334 337 341 344 344 343 343 342 341
320 320 320 321 321 321 322 321 322 323 324 325 327 326 327 327 328 330 329 329 331 332 333 337 339 340 341 342 347 351 351 351 353 355 355 354 354 354 354 353 353 352 352 351 351 350 348 347 346 344 343 341 338 336 333 332 331 331 331 330 328 326 325 324 324 324 324 325 325 325 325 326 326 326 329 332 332 333 336 341 345 346 345 344 343 343
318 318 319 320 320 320 321 322 322 322 323 324 325 325 325 327 327 329 329 329 330 331 333 336 337 337 340 341 346 350 351 352 352 353 354 355 355 354 354 353 353 353 352 352 352 351 350 350 348 347 345 344 341 336 334 333 333 333 333 333 332 329 327 325 324 325 324 324 325 325 326 327 328 328 329 332 334 333 334 340 345 346 346 345 344 344
318 318 319 319 318 318 318 320 321 322 321 322 324 324 324 326 327 327 328 328 329 329 331 335 334 335 340 342 345 349 351 353 352 352 353 354 354 354 354 353 353 353 353 352 352 352 351 351 351 350 347 346 344 340 337 336 336 336 336 335 334 333 331 327 325 324 324 324 325 326 327 329 330 329 328 330 334 335 334 338 343 345 346 345 344 343
318 320 320 318 317 318 317 318 319 320 320 321 323 324 325 327 326 326 328 328 329 329 330 332 330 331 337 341 344 348 350 352 352 352 352 353 354 354 354 354 353 353 352 353 352 352 352 352 352 351 349 348 346 343 341 338 338 340 341 340 338 337 335 332 328 326 325 325 326 328 330 332 332 332 330 330 333 336 335 336 341 343 344 344 344 342
318 320 320 318 318 317 317 317 318 318 318 319 321 324 325 327 327 328 328 327 327 327 329 329 326 327 334 338 342 346 349 350 351 351 352 352 353 353 353 353 353 353 353 352 352 352 353 353 352 351 349 348 347 346 344 342 343 344 344 344 343 342 339 336 332 329 328 327 327 328 331 332 333 334 333 330 331 336 338 338 339 341 343 343 343 342
319 320 320 319 319 318 318 318 318 319 317 316 320 322 324 326 327 328 329 327 324 325 328 328 326 326 330 335 341 347 349 350 350 350 351 352 352 352 353 353 353 353 352 353 352 352 353 352 353 352 350 348 348 347 346 346 346 346 346 346 345 345 342 339 336 333 332 330 330 330 331 331 332 334 334 330 329 334 338 339 340 341 342 342 342 341
320 321 320 320 320 319 318 318 319 319 317 317 322 324 324 325 327 328 328 326 326 326 327 328 327 324 325 331 340 345 348 351 350 350 350 351 352 352 352 352 353 352 352 353 352 353 353 352 352 351 349 348 348 348 347 348 347 347 347 347 346 346 345 343 340 337 335 334 333 332 332 332 333 334 335 332 330 331 337 340 341 342 342 342 341 340
321 321 320 321 321 320 320 319 320 320 319 320 324 325 325 326 328 329 329 327 327 326 325 327 326 324 323 328 336 341 346 350 352 351 350 351 352 351 351 351 352 352 352 353 352 352 352 352 351 349 348 348 349 348 347 347 348 348 348 348 348 348 347 345 343 340 338 336 335 334 333 333 333 334 335 335 332 331 335 339 341 341 342 342 342 340
322 322 322 321 321 321 322 321 321 320 320 322 324 325 326 327 328 329 329 328 327 326 325 326 325 324 324 326 331 337 341 347 350 351 350 351 352 351 352 351 352 352 352 352 352 352 352 351 350 350 349 349 348 348 347 347 348 349 349 349 349 349 348 348 346 344 342 340 338 336 335 334 334 335 335 336 334 332 334 338 340 341 341 342 343 342
323 323 323 322 323 323 322 321 322 321 321 323 325 326 326 327 328 328 328 327 326 326 325 326 325 325 324 326 329 334 339 342 346 348 350 351 351 352 351 351 351 351 351 351 352 351 351 351 351 351 351 350 348 348 347 347 349 349 349 349 349 349 349 349 348 347 346 345 343 341 339 337 337 336 336 336 335 334 335 337 339 340 341 342 343 342
321 323 323 323 324 324 323 323 323 322 322 324 324 324 325 324 325 326 325 325 325 326 325 325 325 324 323 326 330 334 336 338 340 344 347 349 351 352 351 351 351 351 351 351 351 351 351 352 352 352 352 351 350 349 348 347 349 349 349 349 349 349 349 349 349 348 347 347 344 342 339 338 337 336 335 336 336 336 337 338 340 340 341 341 342 342
320 322 323 323 324 324 323 323 323 323 323 323 323 323 322 323 324 325 324 324 324 325 325 325 325 323 323 327 330 333 333 335 338 340 343 347 350 351 351 351 351 350 351 351 351 351 351 350 351 351 351 350 350 349 348 348 349 349 349 350 350 349 349 349 349 349 348 347 345 343 340 338 337 336 336 337 336 338 339 339 340 340 341 341 342 341
319 321 321 323 324 323 323 323 322 323 324 323 322 321 321 322 324 324 324 323 323 322 323 324 324 322 323 328 330 331 331 332 336 338 341 345 348 349 351 351 351 350 351 350 350 350 350 350 350 350 350 349 349 349 348 349 349 349 349 349 350 350 350 349 349 349 348 348 347 344 343 340 338 337 337 338 338 339 340 341 341 341 340 341 341 341
318 319 320 322 321 320 323 323 322 324 325 324 324 323 322 322 323 323 322 322 322 321 322 323 324 323 323 327 331 330 331 332 333 336 339 343 345 347 349 350 351 350 351 350 350 350 350 350 349 349 349 348 348 348 349 349 349 349 349 349 349 349 350 349 349 349 349 350 349 348 346 344 341 339 339 339 339 340 341 341 341 341 340 341 341 341
318 318 318 318 317 318 321 323 324 324 324 325 326 325 322 323 323 323 321 322 321 319 320 321 323 325 326 328 329 328 330 332 331 333 337 340 343 345 347 349 350 350 350 350 350 349 350 349 349 349 349 348 348 348 349 349 349 348 348 349 349 349 349 349 349 350 349 349 350 350 349 347 345 344 343 342 341 340 341 341 341 340 340 340 341 340
318 319 317 317 318 319 320 319 322 323 323 324 325 323 325 326 325 321 321 322 321 319 320 321 321 323 325 327 329 328 328 329 331 332 333 337 341 343 346 347 349 349 349 350 350 349 349 349 349 349 348 348 348 348 348 348 347 347 348 348 348 349 349 349 348 349 349 349 350 350 350 349 349 348 346 344 342 341 341 341 341 341 340 340 340 340
316 318 317 318 319 320 319 319 320 321 324 324 323 324 326 327 326 323 322 323 322 320 321 320 318 319 321 324 330 331 329 328 330 330 332 335 340 343 344 346 347 348 349 349 349 349 349 348 349 348 348 348 348 347 347 347 346 347 347 347 347 348 348 348 348 349 348 349 349 349 350 350 350 350 348 346 344 343 343 342 342 342 341 339 340 340
314 318 319 317 319 319 318 320 321 322 324 324 324 326 326 324 325 325 323 323 322 321 321 319 318 318 319 322 328 330 330 329 331 331 331 334 339 342 342 345 345 346 348 349 349 349 348 348 348 348 348 348 347 348 347 346 347 347 348 348 348 347 347 347 348 348 348 348 349 349 349 349 349 350 349 348 346 345 343 343 342 342 340 339 339 339
314 319 321 318 317 318 318 320 322 322 324 325 325 327 326 324 324 325 324 323 323 322 322 321 319 318 321 324 326 329 331 331 332 334 333 333 338 341 341 344 346 346 347 348 348 349 348 348 348 348 348 348 348 348 347 347 347 347 348 348 348 348 348 348 347 347 347 347 348 348 348 349 349 349 349 349 348 347 345 343 342 341 340 339 339 338
314 317 320 319 317 317 319 320 320 321 322 322 323 324 325 324 324 325 325 323 323 322 323 322 320 319 323 328 327 327 332 332 333 336 336 335 336 339 342 343 344 344 344 345 347 348 348 348 348 348 348 348 348 348 347 347 348 348 348 348 347 348 348 348 348 347 347 346 347 347 348 348 349 349 349 349 349 349 347 344 342 340 340 339 338 338
315 317 318 318 318 317 319 319 317 317 317 318 321 322 322 323 323 324 324 323 322 322 322 323 320 320 325 330 329 326 330 332 332 335 336 335 335 337 340 341 340 340 342 343 345 347 348 348 348 349 348 348 349 348 348 347 348 348 348 348 348 347 347 348 348 347 346 347 347 347 347 348 348 348 348 349 349 348 348 346 343 342 341 340 338 337
315 316 317 317 317 317 317 316 316 316 315 316 318 319 320 321 321 322 324 324 322 322 322 321 320 322 327 332 331 329 329 330 331 333 333 335 334 335 336 338 339 339 339 341 344 346 348 347 348 348 348 348 348 348 347 348 348 347 347 347 348 348 348 347 347 347 346 346 346 346 346 347 348 348 348 348 348 348 348 347 345 343 342 340 339 338
314 315 316 317 317 317 316 316 316 316 317 317 318 317 317 318 318 319 322 322 322 322 322 323 322 323 328 334 332 330 331 329 326 328 329 332 333 333 334 337 340 339 339 342 345 346 348 348 348 348 347 348 348 348 348 347 348 348 348 348 347 348 348 347 348 347 346 346 346 346 347 347 348 348 348 348 348 347 347 347 346 344 342 341 340 338
313 314 315 317 319 319 319 319 319 318 317 317 316 316 315 316 316 318 321 321 321 322 322 323 322 324 330 337 335 331 331 328 327 326 325 326 330 331 332 336 339 339 341 342 344 346 347 347 348 347 348 348 347 347 348 348 348 348 348 347 347 347 348 348 348 347 347 347 347 347 347 347 348 348 348 348 347 347 347 347 346 345 344 343 341 338
311 313 314 316 319 321 322 321 318 317 316 315 315 316 315 315 316 318 322 322 321 323 323 322 322 324 330 336 334 331 331 330 332 330 327 326 326 327 329 331 333 336 340 342 342 343 345 345 346 346 347 347 347 347 348 347 347 348 348 348 348 348 348 348 348 347 347 347 347 347 347 347 348 348 348 348 347 346 347 347 347 345 345 345 343 340
311 313 313 314 316 317 318 316 313 313 315 315 315 316 315 315 315 317 321 323 323 323 321 322 325 324 326 331 332 332 332 334 334 333 331 329 326 325 326 327 328 332 336 339 342 343 343 344 345 346 346 347 347 347 348 347 348 347 348 348 347 348 348 348 348 348 347 347 347 347 347 347 347 347 347 348 347 347 347 347 346 346 345 345 344 342
311 312 312 313 313 313 313 313 312 312 314 314 314 315 314 315 315 317 320 322 324 324 321 327 333 326 324 328 331 332 333 335 337 335 333 331 329 327 328 327 326 328 331 336 340 342 343 343 344 345 346 347 347 347 347 347 347 347 347 348 348 348 348 348 348 348 347 347 347 347 347 347 347 347 348 348 347 347 347 346 346 346 346 346 344 343
310 311 311 311 312 312 311 311 311 312 313 313 314 314 314 315 316 317 319 320 322 324 324 330 336 331 328 327 327 333 336 334 333 331 328 326 326 325 325 326 326 327 329 334 337 340 342 342 344 345 345 346 347 347 347 347 348 347 348 348 348 348 348 348 348 347 348 348 348 348 347 347 347 347 348 347 347 348 347 346 346 346 346 346 345 343
310 311 312 311 311 312 312 312 312 312 313 314 314 314 314 316 316 318 321 323 324 325 325 328 332 330 328 328 332 338 339 338 336 333 332 335 335 332 330 327 324 324 327 329 332 335 338 341 342 343 344 346 346 346 348 347 347 348 348 347 347 347 347 347 348 348 348 348 348 348 347 347 347 347 347 348 347 347 348 347 347 347 348 347 346 345
309 311 312 311 312 313 312 312 312 312 313 313 314 315 315 317 319 322 328 332 332 329 328 328 329 330 331 335 340 342 343 345 347 346 349 352 350 348 345 339 333 329 327 326 326 328 331 336 340 343 344 345 346 346 347 347 347 348 347 348 347 348 348 348 347 348 348 348 347 348 348 347 347 347 348 348 348 348 347 348 347 348 347 347 348 347
308 309 310 310 312 314 313 313 313 313 314 314 315 316 318 321 325 329 333 335 335 334 333 332 330 332 334 337 341 345 347 350 353 354 354 354 353 354 354 351 346 339 335 331 329 327 328 333 338 343 344 345 345 346 347 347 347 348 347 347 348 348 348 347 348 348 348 348 348 348 348 348 347 347 347 348 348 348 347 347 347 347 348 348 348 348
308 308 309 310 312 313 313 313 313 314 316 318 318 318 321 325 328 331 334 334 333 333 335 335 333 333 334 335 339 346 350 351 353 354 353 353 354 354 355 355 354 347 340 336 332 329 330 334 337 340 341 343 345 346 346 347 347 347 347 347 347 348 348 348 347 348 348 348 349 348 348 348 348 347 347 347 348 348 347 348 348 348 348 348 349 349
309 309 309 310 311 313 313 313 315 318 320 321 322 321 323 326 328 331 333 331 329 329 330 332 332 332 332 333 336 343 349 351 353 353 353 354 354 354 354 355 356 351 342 336 335 332 331 333 336 339 340 341 344 346 346 347 347 347 347 347 348 348 348 348 348 348 348 349 348 349 349 348 348 347 347 347 348 348 348 348 347 348 348 348 349 349
309 309 309 310 311 312 313 314 318 322 321 321 322 321 322 324 325 328 331 328 326 326 327 328 330 330 331 333 334 339 347 352 351 352 354 354 354 355 355 355 356 353 345 337 338 337 335 334 336 339 342 343 345 347 347 347 347 348 348 347 348 348 348 348 348 349 349 349 349 349 348 349 348 347 348 348 348 348 348 348 348 348 348 349 349 350
309 309 309 309 311 312 313 315 321 321 319 320 323 320 321 323 324 329 333 328 324 324 325 326 327 328 329 332 333 338 347 352 351 352 354 354 354 355 355 355 357 355 348 342 341 339 338 338 338 340 343 345 347 347 347 347 347 347 348 348 348 348 348 348 348 348 348 349 349 349 348 348 348 348 348 347 348 348 348 348 348 348 348 350 349 350
308 309 309 309 310 312 313 315 318 318 319 325 326 320 320 322 323 327 333 330 323 322 323 324 324 326 328 331 333 340 349 352 351 352 354 353 355 356 355 356 357 354 348 342 341 340 340 341 341 342 344 347 347 347 348 348 348 347 348 348 349 348 349 349 349 349 348 349 349 349 349 348 349 348 348 348 348 348 349 349 349 349 349 350 351 351
308 309 309 309 310 312 313 314 316 318 321 326 324 318 318 321 320 322 330 331 324 321 322 322 322 324 327 328 333 342 351 352 352 352 351 350 353 355 355 356 356 353 345 339 341 341 341 342 342 343 345 346 348 348 348 349 348 348 349 348 349 349 349 349 349 349 349 349 349 349 349 349 348 348 348 349 349 349 350 349 349 350 350 350 351 352
308 309 310 310 311 312 312 313 316 318 321 323 321 318 319 322 321 322 331 333 325 322 323 321 320 323 325 326 331 342 350 353 353 351 346 346 352 354 355 357 356 352 344 340 342 342 342 343 344 344 345 346 347 348 348 349 349 349 349 349 349 349 349 350 349 349 349 349 349 349 349 349 349 349 349 349 349 349 350 350 350 350 351 352 352 353
308 310 310 309 310 312 312 313 314 316 319 320 319 319 321 322 322 327 337 335 325 322 323 321 320 322 323 325 330 337 342 345 346 344 342 344 351 355 355 355 356 353 348 342 342 343 343 344 345 345 346 346 347 348 348 349 349 349 350 350 350 350 349 349 349 349 349 349 349 349 350 349 349 349 349 350 350 350 350 351 352 352 352 353 353 354
309 311 310 310 310 311 312 313 314 316 319 319 319 320 321 323 327 333 336 329 322 323 323 321 320 321 321 323 327 332 334 335 336 336 338 343 349 353 354 355 355 355 353 347 344 344 344 345 345 346 346 347 347 348 348 349 349 349 350 350 350 350 350 349 350 349 349 350 350 349 349 350 349 350 350 350 350 351 351 352 352 353 354 354 355 356
310 311 311 310 310 311 312 313 314 316 319 319 321 322 322 326 331 332 327 322 320 321 320 319 319 320 320 322 325 325 327 329 330 331 334 340 345 348 351 354 354 354 354 351 347 345 345 346 346 347 347 347 347 348 348 349 350 350 350 350 350 350 349 349 349 350 350 349 350 350 350 350 350 350 351 351 352 352 353 353 354 354 355 356 356 356
311 311 311 312 311 312 313 313 314 317 319 319 321 322 321 323 324 321 320 320 318 317 316 316 318 318 318 321 323 321 320 321 324 327 330 335 341 346 349 352 353 354 354 353 351 349 347 347 347 347 348 348 348 348 349 349 350 350 350 350 350 349 349 349 349 350 350 350 349 350 350 350 351 351 351 352 352 353 354 354 355 355 356 357 357 358
312 312 313 314 314 314 314 314 315 317 317 317 320 320 318 317 316 315 317 318 316 315 315 316 316 315 316 319 321 320 319 317 319 323 326 330 336 343 347 350 352 354 354 354 354 354 352 350 348 348 348 348 348 349 349 349 349 350 349 349 349 349 349 350 350 349 349 350 350 350 350 351 351 351 352 353 353 353 354 355 356 356 357 358 358 359
311 311 311 312 313 313 314 314 314 316 316 315 316 316 315 313 312 313 314 315 315 315 315 315 315 314 315 317 317 317 319 318 315 318 322 325 330 338 345 348 350 351 352 353 355 356 355 354 351 349 349 349 349 348 349 350 349 349 350 349 349 349 350 350 350 350 350 350 350 351 351 352 353 353 354 355 356 356 357 358 358 358 359 359 360 360
309 310 310 310 310 311 312 312 312 313 314 315 314 314 313 312 311 311 312 312 313 313 314 314 314 313 314 315 315 315 317 316 313 314 318 321 326 332 339 346 349 349 349 351 353 355 357 357 355 353 351 349 350 350 349 350 349 349 350 350 349 350 350 350 351 351 351 352 354 354 355 356 356 357 358 359 359 360 361 361 361 361 361 361 362 361
309 310 310 310 309 310 312 312 311 311 313 314 314 314 312 311 311 311 311 311 311 312 313 314 314 313 314 314 313 313 314 314 313 313 315 318 323 326 330 338 346 349 349 348 350 351 355 358 357 357 355 352 352 352 351 350 351 350 350 351 351 351 352 352 353 353 354 356 357 358 360 361 360 361 362 361 361 362 362 363 362 362 362 363 362 362
309 310 310 309 309 310 312 311 310 311 313 314 314 313 312 311 311 311 311 311 311 311 312 313 313 313 313 313 313 313 313 313 313 313 313 316 321 325 326 329 340 349 349 348 348 348 350 353 355 357 359 358 357 357 355 354 354 353 353 353 352 354 354 354 356 356 358 359 360 361 362 363 363 363 363 362 362 363 362 363 362 363 363 363 363 363
309 309 310 309 309 310 311 311 310 312 313 314 313 312 312 311 311 311 311 312 311 311 312 312 312 312 312 313 313 312 313 313 313 313 313 314 319 324 324 323 333 346 349 347 348 348 347 348 350 352 356 358 359 360 360 359 359 359 358 358 357 357 358 359 359 360 360 361 363 362 362 362 362 361 361 361 362 362 362 363 362 362 363 363 362 363
309 309 309 310 310 311 311 311 310 310 312 312 312 311 311 310 311 311 312 312 312 312 312 312 311 312 312 313 313 313 313 313 313 313 314 313 317 324 326 320 325 340 347 347 348 349 348 347 349 349 350 352 355 358 360 361 361 361 361 361 361 361 361 362 361 360 361 361 361 360 360 359 359 359 359 359 359 361 362 362 362 362 362 362 362 362
309 309 309 310 310 311 311 310 310 310 310 311 311 310 311 311 311 311 312 313 314 313 313 312 311 312 312 312 313 313 313 313 313 313 314 313 314 321 326 322 319 331 342 346 346 347 348 348 348 349 350 350 350 352 355 357 360 360 360 361 360 359 359 359 358 357 357 358 357 357 358 358 357 358 358 358 358 359 360 361 362 362 362 362 362 363
Wind_Speed
14 9 8 12 11 14 15 14 13 4 3 2 5 7 7 8 8 5 4 3 2 4 7 10 12 14 13 10 12 18 22 21 20 20 20 22 24 25 26 28 29 32 33 34 36 41 42 42 42 41 42 42 42 43 43 43 42 40 40 39 39 38 37 36 36 34 33 32 30 28 27 25 22 21 20 19 19 18 16 16 15 14 13 13 12 11
12 10 12 15 10 9 12 11 10 9 8 4 3 5 6 8 7 5 4 4 3 4 6 7 10 13 13 11 11 15 17 18 20 21 21 24 25 25 28 29 28 28 27 27 30 35 38 39 40 41 41 42 43 44 44 44 42 41 41 40 39 39 38 38 37 36 34 33 31 29 27 25 23 22 21 20 20 19 17 16 16 15 14 13 12 11
9 11 14 13 8 7 8 10 11 12 13 10 5 4 5 4 4 6 5 4 4 4 5 6 9 11 11 12 11 15 17 20 25 27 27 29 28 27 29 29 28 26 25 27 31 34 36 37 38 41 41 40 41 44 43 43 43 42 42 41 40 40 39 39 38 37 35 33 31 29 27 25 23 23 22 21 20 19 18 17 17 16 15 14 13 12
7 10 11 10 10 11 10 11 13 12 11 11 8 6 6 2 3 5 3 1 3 5 6 6 7 8 8 8 10 17 21 19 22 26 26 29 30 30 31 31 30 30 31 31 33 35 37 37 37 40 41 39 39 43 43 43 43 43 42 42 41 41 40 39 39 37 35 33 31 29 27 25 25 24 24 23 22 20 20 19 19 18 17 16 14 13
7 4 10 14 12 14 14 12 14 11 9 12 13 11 8 4 5 5 2 6 6 5 6 6 7 7 7 8 9 13 18 15 16 19 20 21 24 24 24 27 29 32 34 35 36 36 37 39 39 40 43 42 41 43 44 44 44 43 42 41 41 40 40 40 39 38 36 35 33 31 29 27 27 27 26 26 24 23 22 21 20 20 18 17 15 14
9 4 13 17 16 16 15 13 14 12 8 10 14 15 11 7 7 8 7 7 6 4 3 3 7 7 5 10 10 9 12 14 14 17 20 21 20 21 23 26 29 30 33 36 37 38 38 39 39 41 45 45 44 44 44 44 43 42 41 40 40 39 40 40 40 38 38 37 35 34 32 31 30 29 29 28 26 24 22 21 21 20 19 18 16 15
8 8 12 14 16 18 16 13 14 14 9 8 10 13 14 10 9 10 9 6 5 4 1 2 7 6 3 7 10 10 13 16 15 15 20 22 22 25 26 27 28 30 30 32 34 35 37 38 39 42 46 48 47 46 44 43 42 42 41 40 39 38 38 39 40 39 39 38 37 36 35 33 31 30 29 28 26 24 23 21 20 20 20 19 18 16
8 11 12 11 13 15 13 12 14 16 11 7 6 11 14 13 12 12 10 7 6 6 7 7 6 5 6 5 6 10 13 14 15 16 18 20 24 28 28 27 29 31 32 32 33 35 37 41 43 45 47 48 47 46 45 44 42 41 40 39 38 37 37 38 39 39 39 39 38 37 36 35 33 31 29 28 26 26 24 22 21 20 20 19 18 17
9 13 14 13 12 11 11 12 13 17 13 6 7 9 11 13 13 12 9 8 6 6 9 8 4 4 8 4 3 8 13 13 15 18 17 20 26 28 29 29 30 32 33 34 36 37 39 43 47 48 47 47 46 46 46 44 43 41 39 38 37 37 37 36 36 37 38 38 38 38 37 36 34 32 31 29 28 27 25 24 23 22 21 20 19 18
5 12 16 14 11 9 11 12 11 17 13 5 9 9 10 11 11 11 9 8 7 7 11 10 7 6 9 6 5 6 10 11 14 15 15 20 26 28 29 30 30 30 32 33 36 38 41 45 47 46 45 45 45 46 46 44 43 41 40 39 38 38 37 36 35 35 36 36 37 37 37 36 34 33 32 31 29 28 27 26 25 23 22 21 20 19
5 9 16 14 12 10 11 11 11 17 14 7 9 9 8 9 8 8 7 5 7 9 12 13 11 8 9 8 8 7 7 10 11 11 13 18 24 26 26 28 28 29 31 33 34 36 38 42 43 42 42 44 46 46 47 45 43 42 41 40 39 38 37 37 36 35 34 34 35 36 37 36 35 35 34 32 31 30 28 28 26 25 23 22 21 19
9 9 10 8 12 13 11 10 11 16 15 10 9 8 6 5 5 6 5 5 9 10 9 12 12 10 11 8 6 7 8 10 11 11 12 16 21 25 26 27 30 31 32 33 32 33 35 38 38 39 41 44 46 47 48 46 44 44 42 41 40 39 38 37 36 35 35 34 34 33 34 35 35 35 34 33 32 30 28 28 27 26 24 23 22 21
10 11 6 3 12 16 13 9 9 13 14 11 10 9 8 5 6 8 7 7 11 8 4 8 10 10 12 10 6 7 9 11 11 12 13 17 21 25 27 29 31 31 31 32 33 34 36 40 41 41 43 46 48 49 48 47 46 46 44 43 41 40 38 37 36 35 34 34 33 32 32 33 34 34 34 33 32 30 29 28 27 26 25 24 23 23
7 9 9 8 9 10 14 12 8 9 11 12 11 10 10 7 7 10 8 7 9 6 4 6 6 8 9 7 9 13 14 14 13 14 15 17 21 25 28 30 30 30 31 33 35 36 38 44 46 45 47 49 49 48 48 47 47 47 46 44 43 41 39 38 36 35 34 33 32 32 32 32 33 33 33 33 32 31 29 28 27 26 25 24 24 23
7 7 7 8 3 1 9 12 10 9 9 11 12 10 10 9 8 8 6 7 7 4 6 9 6 7 5 2 5 11 16 17 17 19 18 17 21 24 25 26 27 29 31 32 36 40 41 44 48 48 48 49 49 48 48 48 49 48 47 46 44 43 41 40 38 36 35 33 31 31 31 32 33 33 33 33 32 31 30 28 27 26 25 25 24 23
5 3 1 1 2 1 2 4 6 10 10 10 11 11 11 9 8 5 4 5 5 5 6 8 6 4 1 4 4 5 9 12 17 20 21 21 21 20 19 22 26 29 31 33 37 43 43 43 47 49 49 49 48 48 49 49 49 49 48 46 45 43 42 41 39 38 36 34 33 32 31 31 32 32 32 33 33 32 31 29 28 26 25 24 24 23
3 2 4 4 2 4 3 6 4 8 7 7 10 12 9 8 9 7 5 2 3 8 6 6 9 5 2 9 10 8 7 7 13 16 20 22 19 18 19 23 26 29 32 35 40 46 47 46 48 50 50 50 50 50 50 50 49 48 47 46 45 44 43 42 41 39 37 35 34 33 32 31 30 30 30 31 32 32 32 31 29 27 26 25 24 23
2 3 2 2 3 2 6 7 6 9 6 5 9 10 8 8 10 8 6 5 6 9 5 7 13 10 6 7 8 13 13 10 10 12 15 18 16 18 21 24 28 32 34 38 43 46 49 49 49 49 50 51 52 51 51 50 48 46 46 45 45 44 44 43 41 39 37 36 35 34 33 32 31 29 28 29 30 31 32 31 29 28 26 25 25 24
3 4 1 1 2 4 8 5 6 9 11 8 6 9 9 8 10 8 7 7 9 9 5 7 11 11 10 7 5 12 16 14 11 10 13 13 14 19 22 24 30 32 32 36 39 42 47 49 49 50 50 50 51 52 51 49 47 46 46 45 45 44 43 42 40 39 38 36 35 35 34 33 31 30 28 28 28 29 31 31 30 28 27 25 25 25
3 4 2 2 2 5 3 3 7 9 11 8 4 9 9 6 7 9 8 6 6 8 6 7 9 9 8 8 8 10 12 14 13 10 11 12 15 21 23 23 27 30 33 37 38 40 47 50 51 52 52 50 51 52 52 49 48 47 47 46 46 45 43 42 41 40 38 36 36 35 34 33 32 31 29 28 27 26 27 29 29 28 27 26 26 26
2 3 2 0 2 4 3 4 4 2 3 6 6 9 10 6 4 7 8 8 7 7 6 6 8 7 4 5 10 11 9 11 12 10 9 11 17 22 24 25 29 34 39 41 40 41 46 50 51 51 52 49 47 49 51 50 49 49 48 48 47 46 45 44 43 41 39 37 36 35 34 33 32 31 30 30 28 27 26 27 27 27 27 26 26 26
3 2 3 3 2 4 2 3 1 2 3 3 4 4 4 5 6 8 10 10 9 8 6 6 8 7 2 3 7 11 10 10 12 12 10 12 17 21 24 27 33 37 40 42 43 43 44 48 50 49 48 46 44 47 51 51 51 51 50 50 48 47 46 45 44 43 41 39 37 35 33 33 32 31 31 31 30 28 27 26 26 27 26 26 25 25
5 3 4 5 4 6 6 4 3 4 3 2 1 3 3 3 3 6 8 6 8 11 8 7 10 6 3 3 4 8 9 8 8 9 10 14 18 23 28 31 33 37 40 42 42 41 41 46 48 46 46 48 48 50 51 51 52 53 52 51 50 49 48 46 45 43 42 40 38 35 34 33 32 32 31 31 30 29 28 27 26 26 26 25 25 25
5 3 3 4 4 6 6 0 3 2 5 5 1 4 4 3 3 4 5 2 4 10 9 8 10 6 3 4 6 8 8 7 9 9 10 13 14 18 23 26 28 35 39 38 37 36 35 38 43 45 46 49 49 49 50 51 53 53 53 52 51 50 48 47 46 44 42 41 38 36 35 34 33 33 32 32 31 29 28 28 27 26 25 25 26 26
4 2 2 3 4 5 5 4 4 4 4 2 1 2 3 4 6 6 5 3 3 8 11 10 9 7 3 4 6 11 10 8 9 10 10 13 15 14 13 15 21 28 33 33 34 33 32 35 42 46 47 49 49 49 50 52 54 54 53 52 52 51 50 48 46 45 43 41 40 39 37 36 35 34 33 32 31 30 29 28 28 26 25 25 26 26
4 2 2 3 5 7 5 3 3 1 2 2 0 2 4 5 6 5 2 3 4 5 9 10 7 6 4 3 7 12 12 9 8 8 8 11 15 15 13 14 17 22 27 31 33 35 36 38 42 46 47 48 50 51 52 52 53 54 53 52 52 51 50 49 47 45 44 43 43 41 39 38 37 35 34 33 32 31 30 29 28 27 25 25 25 25
4 3 5 6 6 5 1 1 1 2 3 3 4 6 5 3 3 3 1 3 1 2 6 6 4 7 6 4 7 10 11 10 6 5 7 10 12 13 14 15 16 19 25 29 31 34 36 38 41 44 46 48 51 52 53 52 52 53 53 52 52 52 51 50 48 46 45 44 44 43 41 39 37 35 34 33 32 31 30 30 29 27 26 25 25 25
3 4 6 8 10 10 7 4 4 5 6 6 8 9 7 5 3 3 5 4 3 4 5 2 2 6 5 3 5 6 6 7 6 4 5 7 10 13 16 18 18 19 22 26 31 33 35 38 41 44 46 48 51 52 53 52 52 53 53 52 51 52 52 50 49 47 45 44 45 44 41 39 37 35 34 33 32 31 31 30 29 28 27 26 26 26
3 5 5 7 10 12 9 7 6 7 8 8 9 10 10 8 6 6 9 10 7 6 5 6 8 5 3 7 10 10 10 9 10 11 11 12 13 14 16 19 21 21 21 24 28 33 37 40 42 44 46 49 51 52 53 53 53 52 52 51 51 52 52 50 48 46 45 46 46 43 40 38 37 35 34 33 32 32 32 31 30 29 29 28 27 26
3 4 3 6 10 11 10 8 8 9 10 9 10 11 11 11 9 9 10 11 11 11 10 13 15 9 7 9 11 15 16 15 16 17 16 13 12 12 14 17 23 27 27 26 28 31 35 40 43 45 46 48 50 52 53 53 54 53 52 51 51 51 51 49 48 46 46 46 45 42 40 38 37 36 35 35 34 34 33 32 31 31 30 29 28 27
3 3 5 7 8 9 9 8 9 10 10 11 11 12 11 10 9 8 7 6 7 9 11 14 15 10 6 6 11 17 18 14 12 12 11 11 11 12 13 16 22 28 32 33 33 34 36 39 42 45 46 47 49 51 53 54 54 53 52 52 52 51 50 49 47 47 47 46 44 42 40 39 38 38 37 36 35 34 33 32 32 32 31 31 30 29
3 4 6 6 6 6 4 4 6 7 9 12 14 12 10 8 5 4 2 2 2 4 8 9 8 4 4 9 13 14 12 8 6 7 9 11 12 13 14 16 20 25 31 35 36 36 38 40 42 45 46 48 49 50 52 53 53 53 52 53 53 51 50 48 47 47 47 46 44 42 40 39 39 39 38 37 36 35 33 33 33 33 33 32 31 31
4 5 5 4 5 5 2 2 3 5 8 11 9 8 9 7 4 4 3 4 5 3 6 6 4 6 9 11 12 11 9 5 5 7 9 11 13 15 16 18 21 24 28 33 34 34 38 41 43 46 48 49 50 51 52 52 53 54 53 53 52 51 50 48 47 47 47 46 44 42 40 40 39 38 37 36 35 34 34 34 35 35 34 33 32 32
5 5 4 3 4 4 4 4 4 6 7 4 2 2 4 6 3 5 5 7 8 5 6 6 7 11 12 11 11 12 9 5 4 7 9 11 14 16 18 19 21 24 26 29 30 31 35 40 43 46 48 50 51 51 51 51 52 52 52 52 51 50 49 48 47 47 46 45 43 41 40 39 38 37 36 35 35 35 35 35 35 35 34 33 33 33
6 6 4 3 4 6 6 6 6 7 4 1 4 6 1 2 1 3 8 10 12 10 11 11 11 13 14 14 15 16 14 10 8 8 10 12 13 16 18 20 20 21 22 25 26 28 32 38 42 45 48 49 48 47 49 50 50 50 50 50 49 48 48 48 47 46 45 44 42 41 40 39 38 37 36 35 35 35 35 35 35 35 34 34 34 33
8 6 5 4 5 5 5 5 7 2 3 1 2 5 4 1 3 2 8 10 14 12 12 13 13 14 16 18 20 19 16 14 12 8 10 14 14 15 18 19 20 20 20 21 24 26 29 35 40 43 45 45 44 45 48 49 49 48 48 47 47 47 47 47 47 45 44 43 42 41 40 39 38 37 36 35 35 35 35 35 35 34 34 34 34 34
10 7 5 5 5 5 5 6 5 3 3 4 5 4 5 2 6 4 4 6 12 13 12 12 13 16 18 21 23 20 14 10 8 5 11 17 15 15 16 16 17 19 18 18 21 23 26 32 36 39 40 41 42 44 46 47 48 47 47 46 46 46 46 46 45 44 43 42 42 41 40 38 37 36 35 35 35 36 35 35 34 33 33 34 35 35
12 9 6 5 5 5 6 7 5 4 3 5 4 4 5 4 7 7 3 4 9 13 15 13 13 16 17 20 25 22 11 6 4 5 15 20 17 14 15 15 14 15 15 16 17 20 25 29 33 36 37 38 39 42 44 45 46 46 46 45 45 45 45 44 43 42 42 41 41 40 38 37 36 35 34 35 35 34 34 34 33 33 33 34 34 34
14 10 7 6 5 5 6 7 6 5 2 2 2 5 7 6 7 7 6 2 6 12 16 16 15 17 18 20 24 18 6 2 2 9 21 24 17 14 15 15 13 11 10 12 14 17 22 26 31 33 34 35 38 40 42 43 43 44 44 44 43 43 43 43 42 41 40 39 38 37 35 34 34 33 33 33 33 32 31 31 30 30 31 32 32 32
13 10 7 8 7 6 7 7 6 4 0 3 5 9 11 9 5 6 7 3 4 11 16 17 17 18 21 24 21 12 7 6 7 14 24 22 14 13 14 14 13 11 6 7 11 15 18 22 27 30 32 34 36 37 39 40 41 42 42 42 42 42 42 41 39 38 36 35 34 33 33 32 32 31 31 31 29 28 27 27 28 29 30 31 30 30
11 8 7 9 8 7 9 8 6 4 0 4 8 12 13 8 3 5 4 1 5 10 14 17 19 20 22 23 18 11 12 16 17 20 23 23 20 18 16 12 11 10 7 2 8 14 17 20 24 27 30 32 33 35 37 39 40 41 41 42 41 40 38 37 35 34 33 31 31 31 31 31 30 29 29 27 25 26 26 27 27 29 29 29 29 29
11 8 6 8 7 5 6 7 7 4 3 9 12 11 9 4 3 1 2 4 7 10 14 17 18 20 24 24 19 18 21 22 22 23 27 30 29 26 22 17 14 13 10 3 7 15 18 20 22 24 27 28 30 32 35 36 38 39 39 39 37 35 33 32 31 30 30 29 30 30 30 30 29 28 27 27 26 27 27 27 27 28 28 28 28 28
8 6 6 6 5 4 6 7 7 4 6 15 13 7 5 3 1 4 5 5 9 12 15 18 19 21 24 24 22 26 27 25 26 30 34 34 32 30 28 24 21 18 14 9 5 12 18 22 23 24 26 27 28 30 31 33 36 37 37 35 32 30 30 29 28 28 28 28 28 28 28 28 27 26 27 27 26 26 25 26 27 28 28 28 28 28
1 2 3 3 2 3 6 5 2 1 7 13 9 3 5 6 7 8 7 6 10 13 14 17 21 24 25 23 25 29 28 27 32 37 36 34 33 32 30 28 26 23 20 16 10 6 11 18 24 26 27 28 29 29 29 31 34 34 34 32 29 28 28 27 27 27 26 26 26 26 26 26 25 25 25 25 25 25 25 26 27 27 28 28 28 28
2 3 2 2 2 3 6 6 5 5 6 9 8 7 7 6 7 10 9 9 11 13 12 14 20 26 26 23 26 29 26 28 35 39 35 34 34 32 30 30 28 25 24 21 17 12 8 10 18 25 28 29 30 30 30 31 32 32 33 30 27 26 26 25 25 25 24 24 24 23 23 23 23 23 24 23 23 24 24 25 26 27 28 28 28 29
2 6 6 3 3 6 9 10 6 7 5 4 6 6 7 7 8 11 12 12 13 13 13 15 19 24 26 24 26 30 30 31 36 38 37 36 34 32 31 30 26 25 24 24 21 19 15 12 13 19 24 27 29 30 31 31 30 30 30 29 26 25 25 25 25 25 25 24 23 22 22 22 22 22 22 23 23 23 23 23 25 26 27 27 28 29
3 7 6 3 3 4 3 2 5 11 9 3 4 2 5 7 9 13 15 16 15 13 13 15 18 21 24 26 28 31 33 34 36 37 38 38 35 32 31 30 26 24 23 22 21 20 19 19 17 16 19 22 24 26 28 29 29 28 27 26 25 25 26 26 26 26 25 25 23 22 22 22 23 23 24 24 25 25 24 23 25 26 27 28 29 30
5 8 6 3 4 5 5 4 11 15 9 6 7 1 4 9 14 17 17 17 17 14 12 13 16 19 22 25 28 31 32 33 35 36 37 38 35 31 29 29 26 23 22 21 19 18 19 20 21 19 19 19 19 21 24 26 26 26 26 26 25 26 26 26 25 25 25 24 23 23 23 23 24 24 24 25 26 27 27 26 27 28 28 27 28 29
9 9 6 5 6 6 5 4 10 11 2 6 4 6 11 16 20 21 19 19 17 14 12 13 15 17 19 22 25 28 29 30 33 35 36 36 35 31 28 28 26 22 21 20 19 18 17 17 17 18 19 18 18 20 22 23 23 24 24 24 24 25 25 25 25 24 24 23 23 24 24 24 24 24 25 25 26 28 29 29 28 28 28 28 27 27
8 6 5 5 6 4 3 6 9 8 4 6 12 17 19 21 22 22 23 22 19 16 15 15 16 16 17 19 21 24 25 27 30 33 33 34 34 30 26 27 25 22 20 18 17 17 17 16 16 16 16 15 15 17 19 20 21 21 21 22 21 21 22 23 24 23 23 23 23 24 24 25 25 26 26 26 26 27 28 29 29 29 29 28 27 26
10 8 7 6 5 7 10 13 13 11 12 15 19 21 22 22 21 23 25 23 21 19 17 16 17 17 17 16 17 20 21 22 26 30 30 32 32 29 25 25 25 23 20 18 16 16 16 16 16 16 15 14 13 13 14 15 17 18 19 19 19 19 19 21 22 22 22 23 23 23 24 25 25 26 26 27 27 28 28 29 29 29 29 29 27 26
Wind_Direction
175 185 203 207 208 201 198 205 212 238 349 179 187 215 227 227 236 235 234 270 265 238 232 219 231 242 237 217 194 188 188 193 193 184 184 186 186 189 190 192 193 195 199 199 200 204 206 208 210 212 213 214 214 214 214 214 213 213 213 213 213 214 215 216 217 217 217 217 215 214 214 215 215 216 216 217 217 215 215 213 213 214 213 208 202 203
178 202 216 210 202 190 194 201 212 230 241 244 216 213 230 230 240 260 268 285 282 260 247 228 237 243 240 230 200 186 189 196 194 187 187 189 190 193 193 195 195 194 195 194 196 201 203 206 209 212 213 215 216 215 215 215 215 215 215 216 216 216 217 217 218 219 219 219 219 218 218 218 218 218 218 220 220 219 219 217 216 217 215 208 201 202
190 221 220 199 175 172 193 200 207 222 230 239 240 231 238 222 251 272 265 272 266 254 256 243 248 252 245 234 205 187 196 203 198 194 192 190 190 194 195 195 193 190 190 192 196 199 201 203 206 211 213 214 216 217 216 217 217 218 217 218 218 218 219 219 219 221 222 223 223 223 223 223 223 222 220 223 223 222 223 221 220 221 219 213 205 204
195 228 210 169 166 189 196 199 206 216 226 230 229 230 231 198 230 240 205 352 283 251 263 264 260 264 249 228 207 200 205 207 205 202 199 194 193 195 196 194 190 189 189 192 195 198 200 202 203 208 211 212 215 218 218 217 218 219 219 219 219 220 220 220 221 222 223 225 226 226 226 226 227 227 224 224 225 224 224 223 222 222 222 219 213 210
207 209 163 159 179 196 198 199 203 211 223 224 226 229 227 216 231 243 301 336 307 246 241 259 264 267 240 220 216 207 208 211 208 207 206 204 200 197 197 196 194 193 193 193 195 197 199 201 202 206 211 213 215 218 219 218 218 219 219 220 220 221 222 222 222 223 224 226 227 226 226 226 226 227 227 226 225 224 224 223 223 223 223 222 219 216
221 164 148 169 186 194 204 207 204 208 220 225 224 226 231 234 238 258 288 308 297 237 191 235 251 254 225 219 222 200 200 211 205 204 210 206 198 197 199 199 199 199 199 199 198 198 199 200 202 206 212 215 216 219 220 220 219 219 220 220 220 222 222 223 223 224 225 227 228 227 226 226 225 225 226 225 223 222 223 223 224 224 224 223 221 221
217 171 160 182 187 189 204 214 208 204 217 235 215 209 222 237 242 251 264 273 269 263 345 291 252 256 247 225 220 195 196 208 203 207 212 205 198 202 203 201 199 199 201 201 200 199 199 200 202 206 212 215 217 219 221 221 221 220 221 221 221 221 222 223 224 224 226 227 229 230 229 229 228 228 228 226 223 223 224 225 225 226 226 225 223 223
192 179 175 189 191 193 205 213 205 195 212 239 181 179 204 221 233 241 250 250 259 289 290 269 249 264 266 235 208 201 206 208 204 211 213 204 204 206 206 204 201 200 200 199 199 199 200 203 206 209 214 216 217 219 221 221 221 220 220 221 221 222 222 223 224 225 226 228 229 231 231 232 232 232 233 231 227 225 225 226 226 227 228 228 226 225
175 191 185 188 198 204 209 215 199 188 212 229 161 172 196 208 224 232 243 248 255 283 270 245 212 249 259 231 167 202 213 212 210 214 212 204 207 208 208 207 204 203 202 201 202 202 202 207 212 214 216 217 216 218 221 221 221 221 221 221 222 223 222 223 223 224 226 228 230 231 232 232 233 233 234 233 230 228 227 226 227 229 230 231 229 227
184 195 188 192 209 212 210 217 194 187 209 198 159 184 198 205 218 222 236 246 243 249 251 240 208 230 260 235 192 196 207 211 213 218 213 208 210 208 207 208 205 203 202 204 205 205 207 211 215 215 215 215 215 217 221 222 222 222 222 222 223 223 224 224 223 224 226 228 230 231 232 233 233 232 232 232 231 230 229 228 229 230 230 232 232 230
246 197 189 199 213 205 202 209 195 195 201 167 164 189 192 203 212 215 227 234 241 242 242 238 215 217 261 246 208 200 203 204 208 216 213 211 214 212 210 208 204 203 203 204 206 207 210 212 214 212 211 214 216 217 221 222 222 223 223 223 223 224 225 225 225 225 226 227 229 231 232 232 232 232 232 232 231 230 230 230 232 232 231 231 231 231
238 216 190 201 206 191 191 204 199 200 197 177 186 192 178 187 192 208 207 197 235 241 226 226 212 211 242 241 200 191 200 204 208 213 207 208 214 213 211 207 205 205 203 202 204 204 207 209 208 207 209 213 215 216 220 221 222 223 224 224 224 224 224 225 225 225 226 226 227 229 230 231 231 232 232 232 232 231 231 231 232 233 231 230 229 230
228 218 187 197 200 187 188 200 196 197 198 195 198 195 193 189 178 202 202 198 231 239 200 203 199 211 242 251 233 218 219 215 213 217 211 208 212 211 210 208 206 206 203 201 202 202 205 209 208 206 210 213 215 217 220 221 221 222 224 224 224 224 223 224 225 225 225 225 225 226 228 229 230 231 231 231 232 233 234 233 233 233 231 229 228 227
218 204 194 202 197 190 194 198 196 191 194 199 199 197 201 195 192 206 205 210 231 232 175 170 188 228 252 256 230 229 236 227 217 224 222 213 211 212 211 208 205 205 203 202 202 203 206 211 212 211 212 215 216 218 219 219 220 222 223 223 224 224 223 224 224 224 225 225 225 226 226 228 229 229 230 229 231 233 234 235 235 235 234 231 230 228
216 206 200 197 192 258 207 211 214 189 185 201 200 203 209 205 211 214 205 214 234 240 181 166 185 225 224 215 207 223 237 228 216 222 225 220 219 218 213 207 204 204 203 202 205 209 210 212 214 213 214 216 217 217 217 218 220 221 223 223 223 224 223 224 224 224 225 224 224 225 226 227 228 229 230 230 231 232 234 236 237 237 236 235 234 232
235 242 29 264 285 339 214 264 243 197 194 200 195 206 215 208 209 221 227 224 243 262 207 183 215 234 224 310 290 243 245 228 216 217 217 219 219 213 208 204 203 204 203 201 206 212 213 212 214 215 215 217 217 216 216 217 219 220 221 222 222 223 223 223 224 224 225 225 225 225 225 226 227 228 230 231 232 233 234 236 237 238 237 237 236 235
244 225 31 345 232 140 40 344 290 232 211 179 193 211 204 195 208 223 234 206 231 251 224 198 236 244 269 279 258 233 243 230 217 216 216 219 209 197 201 204 203 203 202 203 208 214 214 213 215 216 216 217 216 216 216 217 220 220 220 221 221 223 224 224 224 224 224 225 225 226 226 226 227 227 229 231 232 233 234 235 236 237 238 237 237 236
306 263 7 356 185 130 346 318 264 256 243 183 199 198 169 190 216 228 234 209 217 240 217 200 236 235 218 243 226 213 226 230 219 214 219 217 200 197 206 206 207 207 205 208 212 214 215 215 216 215 215 217 218 217 218 219 221 220 221 222 221 221 222 223 223 224 224 224 225 226 225 226 227 227 229 230 232 233 234 235 235 236 237 236 236 236
319 269 211 98 238 313 335 301 236 233 229 228 209 173 168 205 209 205 227 225 222 236 224 214 240 240 220 222 210 205 216 224 220 212 221 214 193 203 211 208 211 210 205 207 209 210 213 215 216 215 214 215 217 218 220 221 220 220 221 222 222 223 223 223 223 223 224 223 224 225 225 225 226 226 228 230 232 233 234 234 235 236 236 236 237 237
317 264 199 120 296 307 321 227 221 213 211 225 209 181 194 221 208 201 215 222 224 234 233 224 237 241 225 226 236 221 211 218 219 208 217 212 194 204 210 208 208 207 207 210 207 208 213 216 216 218 216 214 214 218 219 219 218 218 220 221 223 224 224 224 224 223 223 222 223 225 225 225 226 226 228 231 233 234 233 234 234 235 236 236 237 238
316 274 252 89 289 258 205 173 202 208 197 210 210 203 204 204 199 209 215 215 222 232 230 226 237 243 208 196 229 234 219 217 220 213 217 212 203 206 208 206 208 210 214 215 211 209 213 215 216 218 217 213 210 214 216 217 217 218 219 221 222 223 224 224 224 224 223 222 223 224 224 225 226 227 228 231 233 235 235 234 233 233 234 235 236 237
338 299 287 303 283 225 178 103 90 334 322 258 239 229 222 218 207 210 216 212 216 232 229 228 248 255 206 167 217 229 227 221 216 213 218 215 209 211 211 211 215 217 218 218 214 211 211 213 214 213 213 209 205 211 215 215 216 217 219 221 221 222 224 224 224 224 223 222 223 223 224 225 226 227 229 231 232 234 235 235 234 233 234 235 235 237
321 295 279 279 270 262 277 314 318 272 239 205 276 341 341 312 235 216 224 211 210 222 223 236 255 260 199 187 228 233 236 245 243 233 229 223 215 215 218 218 219 221 221 220 216 210 209 212 212 208 209 210 209 213 214 213 214 217 219 220 221 222 224 224 224 224 223 222 222 222 224 225 227 227 228 230 232 233 234 235 235 234 233 234 235 236
312 271 263 274 267 271 273 332 67 103 146 145 87 20 17 3 351 284 268 292 230 217 210 224 246 250 200 191 242 258 253 259 271 268 255 251 240 227 223 220 217 220 221 218 214 208 204 207 208 206 209 212 212 212 213 213 215 217 218 220 221 222 223 223 224 225 223 222 222 222 223 225 226 227 228 229 230 231 233 234 235 234 232 233 234 235
320 251 261 270 221 209 195 158 137 115 97 92 60 28 11 358 341 302 256 276 263 216 211 223 238 249 226 175 220 248 249 248 255 252 248 257 260 255 242 229 225 223 219 215 213 207 201 204 208 209 211 212 212 212 214 214 215 216 218 220 221 222 223 223 223 224 223 223 223 223 224 224 225 227 227 228 229 230 231 233 235 234 232 232 234 234
301 272 281 264 218 200 187 184 192 145 27 355 271 300 334 355 341 321 249 232 235 210 220 230 238 250 243 182 213 235 244 249 243 231 228 239 250 257 260 251 241 231 224 219 215 211 208 210 212 211 211 211 210 212 214 214 216 217 218 219 220 221 222 222 223 224 223 223 223 224 224 225 226 226 227 227 228 228 230 232 234 234 233 233 234 234
279 267 268 265 266 265 285 56 347 313 307 300 307 306 316 346 333 322 257 229 267 293 238 222 242 259 247 209 214 226 242 254 248 223 217 225 239 253 264 265 253 238 231 225 218 213 211 212 212 211 210 210 210 212 214 214 215 215 216 218 218 220 221 222 222 223 223 222 223 224 224 224 225 226 227 227 228 229 230 231 233 234 233 233 234 235
272 264 262 260 268 276 297 317 294 286 285 286 296 298 302 305 286 249 242 257 328 304 249 212 287 264 254 257 257 258 269 276 281 270 250 257 268 273 278 278 267 247 234 226 219 215 213 212 212 212 211 210 210 211 213 214 214 215 217 216 216 218 220 221 222 222 222 222 223 223 224 224 225 226 227 228 228 229 231 232 233 234 234 234 234 234
278 267 271 274 274 275 282 286 275 270 269 270 277 282 288 285 266 248 251 259 266 255 266 308 298 277 302 311 314 327 327 315 311 311 311 305 295 288 282 278 271 261 247 231 221 216 216 216 215 213 212 211 210 210 212 213 214 215 216 215 214 216 219 221 222 222 221 222 223 223 223 223 224 226 227 228 228 229 230 231 233 234 234 234 234 234
285 272 300 300 286 279 274 262 257 263 266 265 264 267 274 275 267 261 260 260 256 242 246 270 276 281 296 303 318 324 317 312 308 307 313 312 304 296 285 274 268 264 258 248 238 229 224 221 218 216 214 211 210 211 211 211 213 215 215 215 215 216 219 221 222 220 220 222 222 223 222 222 223 225 226 227 228 229 230 231 232 233 234 234 233 233
292 296 339 331 297 279 271 252 243 250 259 266 268 268 268 263 254 251 261 276 267 248 246 257 268 276 291 320 326 312 305 306 304 307 319 325 321 312 294 276 266 261 258 255 250 243 236 229 220 216 213 211 211 211 211 212 213 214 214 214 215 216 217 220 220 219 220 222 222 222 222 222 223 225 226 227 228 229 230 231 232 233 234 234 234 233
288 295 324 327 293 281 275 244 239 248 259 264 264 261 252 241 223 208 246 355 349 273 268 264 263 275 323 337 325 306 297 297 308 328 330 323 320 310 295 283 272 266 262 259 253 245 240 232 222 215 214 214 212 209 210 211 211 211 212 214 215 215 215 218 218 219 221 222 222 222 222 222 223 225 226 227 228 229 230 230 232 233 233 234 234 234
267 286 308 301 281 283 279 262 265 263 263 259 252 239 222 208 182 165 141 44 25 322 284 269 286 331 331 325 318 307 299 297 323 338 326 317 314 304 293 288 283 277 271 264 258 248 238 231 224 219 217 216 214 211 211 210 210 211 213 214 214 213 213 215 217 218 220 221 222 223 222 223 224 225 227 228 228 229 230 231 232 233 233 234 234 235
243 253 277 278 269 277 299 303 269 236 241 239 78 58 199 181 150 157 136 58 33 11 337 315 320 332 327 318 311 301 292 290 320 331 323 316 312 303 298 295 293 288 277 266 260 250 238 231 225 221 219 218 216 213 210 209 210 210 211 213 213 212 212 214 216 217 219 221 223 223 223 223 225 226 227 228 229 230 231 232 233 234 235 236 237 238
232 236 253 258 253 273 304 297 235 216 233 193 60 35 53 169 39 137 124 69 34 17 0 343 333 332 326 316 307 294 281 269 276 311 331 324 314 308 302 299 298 293 279 265 257 247 235 228 222 218 218 216 213 209 207 207 208 209 210 212 212 211 211 213 215 217 219 221 222 223 223 224 224 226 227 228 229 231 232 233 235 235 237 238 239 240
226 227 239 245 245 265 282 248 218 222 11 145 138 29 25 352 325 189 137 74 34 21 4 344 333 334 328 318 309 298 286 272 260 279 332 335 326 317 307 299 299 296 280 263 254 244 231 221 217 215 214 211 207 205 207 208 208 208 209 210 210 210 211 212 215 217 219 220 222 223 223 224 224 225 226 227 229 230 232 233 234 235 237 238 240 241
219 223 230 235 236 242 254 255 256 309 344 170 155 32 6 326 324 299 169 75 38 23 3 345 338 338 333 325 320 311 294 273 251 273 343 348 340 326 313 304 303 300 284 260 249 242 229 217 212 210 208 205 203 204 206 206 206 207 206 206 207 208 209 211 214 217 219 220 222 223 224 224 224 225 226 227 228 230 231 233 234 235 236 238 240 241
208 214 214 218 225 230 250 267 261 246 216 160 127 15 338 300 307 294 227 96 42 16 0 355 347 340 336 331 328 322 300 260 257 329 346 347 346 340 328 319 316 310 288 261 243 234 224 215 211 209 206 203 202 203 204 205 205 205 205 205 206 207 209 212 214 217 220 221 222 223 224 224 225 226 227 228 229 230 232 233 235 236 238 239 241 243
204 207 206 217 228 228 240 254 245 220 170 106 25 340 330 312 291 261 222 147 30 4 360 0 351 343 341 335 333 335 330 270 333 344 338 339 348 358 350 340 337 327 292 258 236 227 221 213 208 207 205 202 201 202 204 205 205 204 204 205 206 207 209 212 215 218 221 222 223 225 225 226 227 227 228 230 231 232 234 235 236 238 239 241 242 244
202 199 203 216 225 230 237 248 256 249 89 29 347 332 330 324 289 233 208 172 12 357 359 360 352 345 341 338 343 1 18 359 333 325 331 343 8 22 11 1 357 353 325 258 228 221 220 212 205 202 201 201 202 202 203 204 203 203 203 204 205 207 211 214 217 219 221 222 224 225 225 226 227 227 228 230 231 232 233 234 236 237 239 241 242 243
197 193 202 213 221 233 236 244 264 265 358 8 337 329 328 319 248 203 190 110 1 357 3 360 352 345 341 344 353 358 348 343 335 328 343 10 32 36 32 27 19 19 16 291 210 203 209 210 206 204 202 201 201 200 201 202 202 203 204 205 207 211 215 217 218 219 221 222 223 224 225 226 227 227 228 229 229 230 231 232 234 237 238 240 241 242
186 182 193 208 217 229 232 246 260 249 41 3 332 327 335 311 206 162 61 50 21 13 10 0 352 347 345 348 352 348 342 340 341 351 12 28 34 36 41 46 42 39 38 48 174 181 191 198 201 202 201 199 199 200 201 202 202 203 205 207 211 214 215 216 216 217 219 221 222 223 225 226 227 227 228 229 229 230 232 233 235 238 240 240 241 242
176 187 189 190 199 217 226 240 247 231 17 357 335 331 5 6 22 19 16 30 36 29 14 1 353 348 345 344 346 350 348 343 350 11 25 29 32 39 45 51 53 53 50 52 116 164 178 186 190 193 193 194 197 199 200 201 200 202 205 208 210 212 212 213 214 214 216 218 220 223 225 226 228 228 228 230 231 232 234 236 237 239 241 241 242 243
108 195 187 172 163 194 208 219 242 347 9 2 1 57 63 43 37 25 11 13 26 27 17 2 354 351 348 343 342 346 346 346 2 19 23 21 28 38 45 50 56 60 59 54 59 111 165 178 183 186 188 189 192 195 197 199 199 200 203 205 205 206 208 209 209 211 214 216 218 221 224 226 228 229 231 233 234 235 237 238 239 241 242 244 244 244
34 2 344 252 250 272 253 265 318 0 18 27 44 72 75 60 37 21 16 13 12 13 11 1 353 351 350 346 343 342 341 348 5 16 17 16 24 36 43 48 53 59 63 64 67 81 114 160 178 184 186 185 188 192 195 198 199 199 201 202 200 200 201 202 203 205 208 210 213 217 220 224 228 230 232 234 235 236 238 239 241 242 242 244 245 244
309 340 343 282 274 303 277 263 294 343 5 55 74 69 65 58 31 10 3 1 2 5 4 358 352 348 346 347 345 342 343 353 3 9 13 17 24 33 41 45 51 57 61 63 69 81 94 118 155 176 181 181 184 189 193 197 200 202 202 200 197 194 194 195 197 199 201 204 208 211 215 220 224 226 229 232 233 235 236 238 241 242 243 244 244 244
315 332 335 307 299 314 285 259 350 336 313 234 160 100 44 32 6 348 340 340 346 352 352 352 352 347 345 348 350 347 350 358 2 4 10 16 20 25 32 38 46 54 55 55 61 72 88 102 116 140 161 171 179 186 191 195 199 204 204 201 195 193 192 193 194 196 198 200 204 208 212 216 220 223 227 230 232 234 235 235 239 242 243 243 243 243
332 327 326 317 303 288 276 323 344 329 302 198 168 152 355 343 334 328 322 322 330 336 340 345 349 347 346 349 351 351 354 0 2 2 8 14 15 17 23 30 40 50 53 55 58 64 76 88 97 109 128 144 160 175 184 189 194 199 202 200 197 195 194 194 193 194 195 196 199 205 210 214 218 223 226 229 233 235 234 234 235 237 238 240 241 242
321 318 317 311 302 283 268 319 346 339 314 164 189 294 308 312 316 316 311 309 315 324 331 334 337 343 347 347 349 351 353 358 2 3 7 12 13 12 16 24 36 47 50 53 58 61 67 78 87 96 108 120 134 150 162 170 177 184 189 193 196 197 197 195 192 194 197 198 200 205 209 212 215 218 222 226 230 232 233 233 233 235 237 238 238 240
324 316 319 316 306 292 300 338 341 326 279 266 284 289 293 301 308 308 305 304 303 305 311 313 317 329 341 345 349 351 350 354 359 1 6 12 11 9 11 18 29 41 48 53 62 65 67 73 82 89 98 108 123 138 147 153 160 166 172 180 186 190 195 195 193 195 199 202 204 207 208 209 211 212 216 220 223 226 231 233 233 235 237 238 238 239
327 315 316 312 296 290 297 303 306 295 280 280 284 285 289 296 299 297 298 299 298 296 298 299 301 313 330 341 352 354 350 350 357 0 5 10 11 10 9 11 20 32 41 47 55 62 68 74 81 87 92 96 109 130 144 152 159 164 168 174 178 181 189 196 198 199 203 206 209 211 211 213 214 213 214 217 219 223 228 232 235 237 238 238 239 239